Home   Weather   Ribeirão Prêto   Past weeks

Flag for Brazil Past Weather in Ribeirão Prêto, São Paulo, Brazil — Yesterday and Last 2 Weeks

Now
84 °F

Passing clouds.


Feels Like: 82 °F
Forecast: 60 / 90 °F
Wind: 5 mph from Southwest

Location: Leite Lopes / Ribeir

Current Time: Sep 27, 2016 at 12:40:54 PM

Latest Report: Sep 27, 2016 at 12:00 PM


Visibility: N/A

Pressure: 30.04 "Hg (28.23 "Hg at 549m altitude)

Humidity: 29%

Dew Point: 48 °F

Location of Ribeirão PrêtoLocation

Past Weather in Ribeirão Prêto — Graph

°F

Ribeirão Prêto Temperature Yesterday

Maximum temperature yesterday: 88 °F (at 2:00 PM)
Minimum temperature yesterday: 57 °F (at 5:00 AM)
Average temperature yesterday: 72 °F

High & Low Weather Summary for the Past Weeks

 TemperatureHumidityPressure
High99 °F (Sep 18, 3:00 PM)100% (Sep 20, 7:00 AM)30.21 "Hg (Sep 20, 7:00 AM)
Low52 °F (Sep 21, 6:00 AM)14% (Sep 13, 3:00 PM)29.83 "Hg (Sep 19, 3:00 PM)
Average77 °F47%29.99 "Hg
* Reported Sep 12 11:00 AM — Sep 27 11:00 AM, Ribeirão Prêto, Weather by CustomWeather, © 2016

Note: Actual official high and low records may vary slightly from our data, if they occured in-between our weather recording intervals... More about our weather records

Advertising

Ribeirão Prêto Weather History for the Previous 24 Hours

Scroll right to see more
 ConditionsComfort  
Time TempWeatherWind HumidityBarometerVisibility
11:00 AM
Tue, Sep 27
79 °FSunny.7 mph45%30.07 "Hg10 mi
10:00 AM75 °FSunny.9 mph54%30.07 "Hg10 mi
9:00 AM72 °FSunny.12 mph61%30.07 "Hg10 mi
8:00 AM64 °FClear.8 mph73%30.07 "Hg4 mi
7:00 AM61 °FClear.7 mph77%30.07 "Hg4 mi
6:00 AM59 °FFog.6 mph77%30.04 "Hg3 mi
5:00 AM59 °FClear.10 mph77%30.01 "Hg10 mi
4:00 AM59 °FClear.6 mph77%29.98 "Hg10 mi
3:00 AM63 °FClear.5 mph68%29.98 "Hg10 mi
2:00 AM63 °FClear.5 mph68%30.01 "Hg10 mi
1:00 AM64 °FClear.No wind64%30.01 "Hg10 mi
12:00 AM68 °FClear.8 mph56%30.01 "Hg10 mi
11:00 PM
Mon, Sep 26
70 °FClear.5 mph46%30.01 "Hg10 mi
10:00 PM72 °FClear.5 mph44%30.01 "Hg10 mi
9:00 PM75 °FClear.9 mph36%29.98 "Hg10 mi
8:00 PM77 °FClear.8 mph32%29.95 "Hg10 mi
7:00 PM81 °FClear.7 mph26%29.95 "Hg10 mi
6:00 PM82 °FSunny.8 mph28%29.92 "Hg10 mi
5:00 PM84 °FSunny.7 mph23%29.92 "Hg10 mi
4:00 PM86 °FPassing clouds.9 mph22%29.92 "HgN/A
3:00 PM86 °FScattered clouds.12 mph24%29.92 "HgN/A
2:00 PM88 °FScattered clouds.6 mph25%29.95 "HgN/A
1:00 PM84 °FPassing clouds.7 mph29%29.98 "HgN/A
12:00 PM82 °FPassing clouds.6 mph30%30.01 "HgN/A
Weather by CustomWeather, © 2016

See weather overviewHow to use our weather pages